Regional Weather Roundup
Issued by NWS Grand Forks, ND

Home | Current Version | Previous Version | Text Only | Print | Product List | Glossary On
Versions: 1 2 3 4 5 6 7 8 9 10 11 12 13 14 15 16 17 18 19 20 21 22 23 24 25 26 27 28 29 30 31 32 33 34 35 36 37 38 39 40 41 42 43 44 45 46 47 48 49 50
000
ASUS43 KFGF 180231
RWRFGF
PRAIRIE TO PINES  WEATHER ROUNDUP
NATIONAL WEATHER SERVICE EASTERN NORTH DAKOTA/GRAND FORKS ND
800 PM CST TUE JAN 17 2017

 **SATELLITE DATA USED TO AUGMENT SKY COVER AT AUTOMATED STATIONS**
 *****  WEATHER ACROSS EASTERN NORTH DAKOTA  *****

CITY           SKY/WX    TMP DP  RH WIND       PRES   REMARKS
GRAND FORKS    FAIR      23  17  78 S20       29.72R WCI   8
GRAND FRKS AFB FAIR      26  18  71 SW10      29.71R WCI  16
DEVILS LAKE    FAIR      26  20  77 SW14      29.66F WCI  14
FARGO          FAIR      21  17  84 S16       29.81F WCI   7
WAHPETON ARPT  FAIR      19  14  79 SE9       29.87F WCI   9
$$

 ***** WEATHER ACROSS CENTRAL AND WESTERN NORTH DAKOTA  *****

CITY           SKY/WX    TMP DP  RH WIND       PRES   REMARKS
BISMARCK       FAIR      31  18  58 SW9       29.76F WCI  23
MINOT          FAIR      36  24  62 SW16      29.64R
JAMESTOWN      FAIR      28  18  66 SW13      29.72F WCI  17
MINOT AFB      FAIR      33  25  72 W17       29.62S WCI  22
GARRISON         N/A     28  21  75 W13       29.69S WCI  17
WILLISTON      FAIR      27  20  75 SE6       29.72R WCI  20
DICKINSON      FAIR      29  20  69 SW14      29.75R WCI  18
HETTINGER      FAIR      28  18  66 NW10      29.82S WCI  19
$$

 *****  OTHER AIRPORT OBSERVATIONS IN OUR AREA  *****

CITY           SKY/WX    TMP DP  RH WIND       PRES   REMARKS
WALHALLA       NOT AVBL
GRAFTON AIRPOR FAIR      19  18  93 S10       29.70F WCI   8
VALLEY CITY AR FLURRIES  21  19  93 SW23      29.76S WCI   5
CANDO          NOT AVBL
CAVALIER APRT    N/A     28  19  69 SW12G18   29.64S WCI  18
GWINNER        FAIR      23  19  86 SW24      29.82F WCI   7
SHEYENNE NWR     N/A     20  14  77 SW14      29.95S WCI   7
ROLLA            N/A    N/A N/A N/A MISG        N/A
 ***** THE ABOVE OBSERVATIONS ARE NON NWS ARE NOT QUALITY
       CONTROLLED AND MAY MIS-REPORT RAIN FOR SNOW...
$$

  *****  WEATHER ACROSS NORTHERN MINNESOTA  *****

CITY           SKY/WX    TMP DP  RH WIND       PRES   REMARKS
FLAG ISLAND    FAIR      16  12  86 S13       29.65F WCI   2
WARROAD        FAIR      27  19  74 SW10      29.69R WCI  17
ROSEAU         FAIR      25  18  74 S10       29.70R WCI  15
HALLOCK        FAIR      19  16  86 S18       29.68F WCI   4
THF RVR FALLS  FAIR      22  18  85 S17       29.74F WCI   8
BAUDETTE       FAIR      28  20  71 S13       29.70F WCI  17
WASKISH        FAIR      28  21  74 S7        29.75F WCI  21
CROOKSTON      FAIR      19  18  93 S20       29.76R WCI   4
GREENBUSH NDAW   N/A     21  18  86 S16         N/A  WCI   7
$$
  *****  WEATHER ACROSS CENTRAL AND WEST MINNESOTA  *****

CITY           SKY/WX    TMP DP  RH WIND       PRES   REMARKS
FOSSTON        FAIR      25  19  80 S22       29.76F WCI  10
BEMIDJI        FAIR      26  20  76 S7        29.78F WCI  19
PARK RAPIDS    FAIR      19  12  74 S8        29.84F WCI   9
ELBOW LAKE     FAIR      15  13  91 SE12      29.91S WCI   2
WADENA         FAIR      16  12  86 S9        29.86F WCI   4
DETROIT LAKES  FAIR      21  19  93 S12       29.83F WCI   9
MOORHEAD       FAIR      19  16  86 S18       29.82F WCI   4
FERGUS FALLS   FAIR      16  12  86 S13       29.93F WCI   2
MORRIS MN      FAIR      14  10  85 S12       29.91F WCI   0
STAPLES        FAIR      16  12  86 S8        29.89F WCI   5
$$
  *****  WEATHER ELSEWHERE ACROSS MINNESOTA  *****

CITY           SKY/WX    TMP DP  RH WIND       PRES   REMARKS
DULUTH         FAIR      29  21  72 W8        29.86F WCI  21
INTRNTL FALLS  FAIR      27  17  66 VRB5      29.75F WCI  22
ELY            FAIR      27  14  59 SW7       29.82S WCI  19
CLOQUET        FAIR      28  19  69 SW8       29.88S WCI  20
WHEATON        FAIR      25  21  86 SE10      29.90F WCI  15
BRAINERD       FAIR      22  15  75 S6        29.90F WCI  14
HIBBING        FAIR      24  13  62 S3        29.85S
ALEXANDRIA     FAIR      17  13  84 SW12      29.92F WCI   4
SAINT CLOUD    FAIR      23  21  92 SW8       29.96S WCI  14
MINNEAPOLIS    CLOUDY    32  29  88 SW9       29.99S FOG     WCI  24
$$

  *****  WEATHER ACROSS SOUTH DAKOTA  *****

CITY           SKY/WX    TMP DP  RH WIND       PRES   REMARKS
SIOUX FALLS    FAIR      27  25  92 S9        29.98F WCI  18
BROOKINGS      FAIR      22  19  89 S6        29.95R WCI  14
WATERTOWN      FAIR      17  14  88 S9        29.91F WCI   6
HURON          FAIR      26  23  88 SE10      29.93F WCI  16
SISSETON         N/A     31  22  69 SW14      29.86F WCI  21
ABERDEEN       FAIR      15  10  80 S12       29.90F WCI   2
MITCHELL       FAIR      29  28  96 S9        29.96S WCI  20
PIERRE         FAIR      23  18  81 S5        29.90S WCI  17
MOBRIDGE       FAIR      16   9  74 SE10      29.82F WCI   4
RAPID CITY     FAIR      28  13  53 CALM      29.89S
$$

  *****  SOME WEATHER IN NEARBY STATES *****

CITY           SKY/WX    TMP DP  RH WIND       PRES   REMARKS
GLASGOW MT     FAIR      28  20  71 E6        29.69F WCI  22
GREAT FALLS MT FAIR      39  22  50 SW26      29.75F
CHEYENNE WY    FAIR      30  13  49 W10       30.01R WCI  21
SCOTTSBLUFF NE FAIR      37  13  37 W12       29.98S
OMAHA NE       FAIR      27  22  81 SE7       30.09F HAZE    WCI  19
DES MOINES IA  CLOUDY    33  32  96 W10       30.10S FOG     WCI  25
DAVENPORT IA   CLOUDY    33  32  96 W14       30.05R FOG     WCI  23
CHICAGO IL     DRIZZLE   35  34  96 W10       29.97R FOG
EAU CLAIRE WI  FAIR      30  28  92 SW9       29.97R FOG     WCI  22
LA CROSSE WI   FAIR      35  33  92 CALM      30.00R FOG
$$

  *****  SOME NATIONAL WEATHER *****

CITY           SKY/WX    TMP DP  RH WIND       PRES   REMARKS
LA GUARDIA NY  LGT RAIN  40  37  89 NE12      30.02F FOG
RALEIGH NC     CLOUDY    60  56  86 SW9       30.07F
ATLANTA GA     MOCLDY    64  57  78 SW6       30.16F
NEW ORLEANS LA MOCLDY    69  66  90 SE5       30.14S
OKLAHOMA CITY  CLOUDY    45  34  65 CALM      30.17R
ALBUQUERQUE NM MOCLDY    44  33  65 SW5       30.10R
SALT LAKE CITY FAIR      26  20  77 NW5       30.23R WCI  20
LOS ANGELES CA FAIR      57  53  86 W9        30.12R
BOISE ID       FAIR      10   4  76 W8        30.22R HAZE    WCI  -2
SEATTLE WA     RAIN      43  43 100 CALM      29.54S VSB 1
$$

*** WEATHER ACROSS MANITOBA...SASKATCHEWAN AND ONTARIO ***
                ***ONTARIO***

CITY           SKY/WX    TMP DP  RH WIND       PRES   REMARKS
GERALDTON      MOCLDY    23  23 100 SW5       29.76F WCI  17
THUNDER BAY    MOCLDY    21  19  93 NW2       29.84S FOG
SIOUX LOOKOUT  MOCLDY    27  19  74 S12G20    29.67F WCI  16
TORONTO        LGT RAIN  34  32  93 N7        29.81R FOG
BIG TROUT LK   CLOUDY    32  25  74 SW16G23   29.31F WCI  21
PICKLE LAKE    CLOUDY    28  23  80 SW15G24   29.56F WCI  17
DRYDEN         PTCLDY    25  19  80 S14G20    29.66F WCI  13
KENORA         PTCLDY    25  19  80 S15G21    29.62F WCI  12
$$
                *** MANITOBA***

CITY           SKY/WX    TMP DP  RH WIND       PRES   REMARKS
BRANDON        PTCLDY    27  21  80 W20       29.55R WCI  13
DAUPHIN        CLEAR     34  27  75 SW16G23   29.46S WCI  23
ISLAND LAKE    CLEAR     30  21  69 W12G18    29.35  WCI  21
PILOT MOUND      N/A     21  18  86 SW14        N/A  WCI   8
THE PAS        CLOUDY    34  25  69 SW3       29.37R
THOMPSON       PTCLDY    32  27  80 W10       29.25R WCI  24
WINNIPEG       PTCLDY    23  18  80 S21G28    29.57F WCI   8
LYNN LAKE      CLEAR     32  32 100 W13       29.25R WCI  22
CHURCHILL      LGT SNOW  27  25  93 N16       29.02R DRFTSNOWWCI  14
GILLAM         CLOUDY    34  28  80 W18G26    29.13R WCI  23
$$
                ***SASKATCHEWAN***

CITY           SKY/WX    TMP DP  RH WIND       PRES   REMARKS
ESTEVAN        MOCLDY    28  25  86 SW15      29.63R WCI  17
KINDERSLEY     PTCLDY    34  28  80 S13       29.45S WCI  25
LLOYDMINSTER   PTCLDY    36  30  80 S7        29.35F
PRINCE ALBERT  CLOUDY    28  25  86 S3        29.42S
REGINA         PTCLDY    34  30  86 W14       29.55S WCI  24
YORKTON        CLEAR     32  28  86 S6        29.48S
N. BATTLEFORD  CLOUDY    36  30  80 S8        29.42S
LA RONGE       CLOUDY    36  28  75 S5        29.35S
SASKATOON      MOCLDY    36  32  87 SW14      29.46F
SWIFT CURRENT  CLEAR     43  32  65 W17G29    29.53S
$$
NOTE: THESE ARE AUTOMATED STATIONS WITH LIMITED QUALITY CONTROL
      "FAIR" INDICATES FEW OR NO CLOUDS BELOW 12,000 FEET WITH NO
      SIGNIFICANT WEATHER AND/OR OBSTRUCTIONS TO VISIBILITY.
      SKY/WX - SKY CONDITION AND SIGNIFICANT WEATHER.
      TMP - AIR TEMPERATURE.    DP   - DEWPOINT TEMPERATURE.
      RH  - RELATIVE HUMIDITY.  PRES - PRESSURE.
      HX  - HEAT INDEX.         WCI  - WIND CHILL INDEX.
$



USA.gov is the U.S. government's official web portal to all federal, state and local government web resources and services.